FW8564 Weather Reports


time (UTC)temp
C
wind
direction
speed
KPH
gust
KPH
rain 1hr
cm
rain 24hr
cm
rain mn
cm
humidity
%
barometer
mb
20260506174746 13 270 0.0 0.0 0.10 1.70 2.49 95 1010.3
20260506174237 13 293 0.0 0.0 0.10 1.70 2.49 95 1010.3
20260506173216 13 0 0.0 0.0 0.10 1.70 2.49 95 1010.3
20260506172706 13 338 0.0 0.0 0.10 1.70 2.49 95 1010.3
20260506172156 13 68 0.0 0.0 0.03 1.65 2.44 95 1010.3
20260506171646 13 90 0.0 0.0 0.10 1.65 2.44 95 1010.2
20260506170625 13 158 0.0 0.0 0.20 1.65 2.44 95 1010.5
20260506170115 13 158 0.0 0.0 0.20 1.63 2.39 95 1010.1
20260506165606 13 135 0.0 0.0 0.23 1.63 2.39 95 1010.3
20260506165055 13 113 0.0 0.0 0.38 1.63 2.39 95 1009.9
20260506164545 13 113 0.0 0.0 0.69 1.63 2.39 95 1009.9
20260506164035 13 90 0.0 0.0 1.02 1.63 2.39 95 1010.0
20260506163525 13 90 0.0 0.0 1.35 1.63 2.39 94 1009.9
20260506163015 13 68 0.0 0.0 1.47 1.63 2.39 94 1010.0
20260506162504 13 23 0.0 0.0 1.50 1.63 2.39 94 1010.1
20260506161954 13 68 0.0 0.0 1.47 1.60 2.39 94 1009.8
20260506161444 13 68 0.0 0.0 1.42 1.52 2.31 94 1009.6
20260506160934 13 113 0.0 0.0 1.35 1.45 2.21 94 1009.7
20260506160424 12 113 0.0 0.0 1.45 1.45 2.21 93 1009.9
20260506155406 12 45 0.0 0.0 1.35 1.35 2.13 92 1010.0
20260506154853 13 45 0.0 0.0 1.17 1.17 1.96 92 1010.3
20260506154343 13 293 0.0 0.0 0.76 0.76 1.55 92 1010.7
20260506152823 13 315 0.0 0.0 0.13 0.13 0.89 89 1009.9
20260506152307 13 45 0.0 0.0 0.13 0.13 0.89 88 1009.8
20260506151244 14 68 0.0 0.0 0.13 0.13 0.89 85 1009.4
20260506150733 14 68 0.0 0.0 0.05 0.05 0.86 83 1009.3
20260506145712 15 113 0.0 0.0 0.00 0.00 0.79 79 1009.1
20260506145202 16 90 0.0 0.0 0.00 0.00 0.79 77 1009.3
20260506144653 16 68 0.0 0.0 0.00 0.00 0.79 76 1009.3
20260506144142 16 90 0.0 0.0 0.00 0.00 0.79 75 1009.3
20260506143632 16 135 0.0 0.0 0.00 0.00 0.79 75 1009.3
20260506143122 16 90 0.0 0.0 0.00 0.00 0.79 75 1009.3
20260506142613 16 90 0.0 0.0 0.00 0.00 0.79 74 1009.4
20260506142102 16 113 0.0 0.0 0.00 0.00 0.79 73 1009.5
20260506141552 17 113 0.0 0.0 0.00 0.00 0.79 73 1009.2
20260506141041 17 113 0.0 0.0 0.00 0.00 0.79 72 1009.4
20260506140537 17 90 0.0 0.0 0.00 0.00 0.79 72 1009.4
20260506140021 17 158 0.0 0.0 0.00 0.00 0.79 71 1009.3
20260506135001 18 135 0.0 0.0 0.00 0.00 0.79 69 1009.7
20260506134451 17 113 0.0 0.0 0.00 0.00 0.79 72 1009.3
20260506133941 17 90 0.0 0.0 0.00 0.00 0.79 71 1009.4
20260506133431 17 135 0.0 0.0 0.00 0.00 0.79 71 1009.9
20260506132921 17 135 0.0 0.0 0.00 0.00 0.79 70 1009.9
20260506131351 17 113 0.0 0.0 0.00 0.00 0.79 70 1009.7
20260506130840 17 90 0.0 0.0 0.00 0.00 0.79 70 1009.9
20260506130330 17 113 0.0 0.0 0.00 0.00 0.79 69 1009.9
20260506125820 18 90 0.0 0.0 0.00 0.00 0.79 69 1009.8
20260506125309 18 113 0.0 0.0 0.00 0.00 0.79 69 1009.9
20260506124800 18 203 0.0 0.0 0.00 0.00 0.79 68 1009.8
20260506124249 17 113 0.0 0.0 0.00 0.00 0.79 72 1009.7
20260506123740 16 113 0.0 0.0 0.00 0.00 0.79 74 1009.9
20260506123229 16 135 0.0 0.0 0.00 0.00 0.79 74 1010.0
20260506122719 17 113 0.0 0.0 0.00 0.00 0.79 74 1010.0
20260506122209 16 135 0.0 0.0 0.00 0.00 0.79 74 1010.0
20260506121158 15 135 0.0 0.0 0.00 0.00 0.79 77 1009.9
20260506120639 16 135 0.0 0.0 0.00 0.00 0.79 78 1010.0
20260506120128 16 158 0.0 0.0 0.00 0.00 0.79 74 1009.9
20260506114558 17 158 0.0 0.0 0.00 0.00 0.79 72 1009.9
20260506114048 17 135 0.0 0.0 0.00 0.00 0.79 72 1010.1
20260506113538 18 158 0.0 0.0 0.00 0.00 0.79 71 1009.9
20260506113029 18 135 0.0 0.0 0.00 0.00 0.79 70 1009.8
20260506112518 18 90 0.0 0.0 0.00 0.00 0.79 71 1009.7
20260506112008 18 135 0.0 0.0 0.00 0.00 0.79 71 1010.0
20260506111458 17 113 0.0 0.0 0.00 0.00 0.79 73 1010.3
20260506110437 17 113 0.0 0.0 0.00 0.00 0.79 73 1010.5
20260506105927 17 113 0.0 0.0 0.00 0.00 0.79 71 1010.1
20260506105417 17 90 0.0 0.0 0.00 0.00 0.79 73 1010.2
20260506104907 17 158 0.0 0.0 0.00 0.00 0.79 73 1010.0
20260506104357 17 113 0.0 0.0 0.00 0.00 0.79 71 1010.2
20260506103847 17 90 0.0 0.0 0.00 0.00 0.79 73 1010.5
20260506103336 17 158 0.0 0.0 0.00 0.00 0.79 75 1010.4
20260506102827 16 135 0.0 0.0 0.00 0.00 0.79 75 1010.4
20260506101806 17 113 0.0 0.0 0.00 0.00 0.79 74 1010.4
20260506101256 17 135 0.0 0.0 0.00 0.00 0.79 74 1010.4
20260506100746 17 158 0.0 0.0 0.00 0.00 0.79 70 1010.4
20260506100236 18 248 0.0 0.0 0.00 0.00 0.79 68 1010.7
20260506095725 18 248 0.0 0.0 0.00 0.00 0.79 70 1010.6
20260506095216 17 203 0.0 0.0 0.00 0.00 0.79 70 1010.7
20260506094706 18 225 0.0 0.0 0.00 0.00 0.79 69 1010.8
20260506094155 18 203 0.0 0.0 0.00 0.00 0.79 71 1010.7
20260506093645 17 248 0.0 0.0 0.00 0.00 0.79 71 1010.6
20260506093136 17 180 0.0 0.0 0.00 0.00 0.79 72 1010.6
20260506092625 17 135 0.0 0.0 0.00 0.00 0.79 73 1010.5
20260506091605 17 248 0.0 0.0 0.00 0.00 0.79 74 1010.6
20260506091055 17 90 0.0 0.0 0.00 0.00 0.79 74 1010.4
20260506090545 16 158 0.0 0.0 0.00 0.00 0.79 74 1010.5
20260506090034 16 158 0.0 0.0 0.00 0.00 0.79 76 1010.4
20260506085525 16 113 0.0 0.0 0.00 0.00 0.79 77 1010.4
20260506085015 16 135 0.0 0.0 0.00 0.00 0.79 77 1010.3
20260506084505 16 90 0.0 0.0 0.00 0.00 0.79 76 1010.5
20260506083954 15 158 0.0 0.0 0.00 0.00 0.79 76 1010.5
20260506083444 16 113 0.0 0.0 0.00 0.00 0.79 76 1010.2
20260506082934 16 113 0.0 0.0 0.00 0.00 0.79 78 1010.4
20260506082424 15 158 0.0 0.0 0.00 0.00 0.79 80 1010.4
20260506081913 16 158 0.0 0.0 0.00 0.00 0.79 80 1010.2
20260506081403 15 113 0.0 0.0 0.00 0.00 0.79 81 1010.4
20260506080853 15 158 0.0 0.0 0.00 0.00 0.79 83 1010.4
20260506080343 15 180 0.0 0.0 0.00 0.00 0.79 84 1010.4
20260506073243 12 90 0.0 0.0 0.00 0.00 0.79 92 1010.4
20260506072223 12 90 0.0 0.0 0.00 0.00 0.79 93 1010.4
20260506071712 12 90 0.0 0.0 0.00 0.00 0.79 93 1010.4
20260506071203 12 90 0.0 0.0 0.00 0.00 0.79 93 1010.3
20260506070652 12 68 0.0 0.0 0.00 0.00 0.79 93 1010.5
20260506070142 12 68 0.0 0.0 0.00 0.00 0.79 94 1010.4
20260506062021 11 113 0.0 0.0 0.00 0.00 0.79 94 1010.3
20260506061520 11 135 0.0 0.0 0.00 0.00 0.79 94 1010.2
20260506061001 11 135 0.0 0.0 0.00 0.00 0.79 94 1010.2
20260506051310 11 135 0.0 0.0 0.00 0.00 0.79 94 1009.6
20260506050759 11 135 0.0 0.0 0.00 0.00 0.79 94 1009.5
20260506050250 11 135 0.0 0.0 0.00 0.00 0.79 94 1009.5
20260506044720 11 135 0.0 0.0 0.00 0.00 0.79 94 1009.3
20260506044209 11 135 0.0 0.0 0.00 0.00 0.79 94 1009.3
20260506043659 10 135 0.0 0.0 0.00 0.00 0.79 94 1009.3
20260506043150 10 135 0.0 0.0 0.00 0.00 0.79 94 1009.2
20260506042639 11 135 0.0 0.0 0.00 0.00 0.79 94 1009.0
20260506042128 11 135 0.0 0.0 0.00 0.00 0.79 94 1009.4
20260506041108 10 135 0.0 0.0 0.00 0.00 0.79 94 1009.3
20260506040559 10 135 0.0 0.0 0.00 0.00 0.79 94 1008.9
20260506040048 10 135 0.0 0.0 0.00 0.00 0.79 93 1008.9
20260506035538 10 135 0.0 0.0 0.00 0.00 0.79 93 1009.1
20260506035028 10 135 0.0 0.0 0.00 0.00 0.79 93 1009.0
20260506034008 10 135 0.0 0.0 0.00 0.00 0.79 93 1008.9
20260506033458 10 135 0.0 0.0 0.00 0.00 0.79 93 1009.0
20260506032947 10 113 0.0 0.0 0.00 0.00 0.79 93 1008.8
20260506032437 10 113 0.0 0.0 0.00 0.00 0.79 93 1009.0
20260506031927 10 113 0.0 0.0 0.00 0.00 0.79 93 1009.0
20260506031417 10 113 0.0 0.0 0.00 0.00 0.79 93 1008.8
20260506030907 10 113 0.0 0.0 0.00 0.00 0.79 92 1009.1
20260506030357 10 135 0.0 0.0 0.00 0.00 0.79 92 1009.1
20260506025846 10 135 0.0 0.0 0.00 0.00 0.79 92 1008.7
20260506025339 10 135 0.0 0.0 0.00 0.00 0.79 92 1009.0
20260506024826 9 135 0.0 0.0 0.00 0.00 0.79 92 1009.0
20260506024316 9 135 0.0 0.0 0.00 0.00 0.79 92 1008.9
20260506023807 9 135 0.0 0.0 0.00 0.00 0.79 92 1008.6
20260506023256 9 135 0.0 0.0 0.00 0.00 0.79 91 1008.7
20260506022746 9 158 0.0 0.0 0.00 0.00 0.79 91 1008.7
20260506022236 9 158 0.0 0.0 0.00 0.00 0.79 91 1008.6
20260506021726 9 158 0.0 0.0 0.00 0.00 0.79 91 1008.6
20260506021216 9 158 0.0 0.0 0.00 0.00 0.79 90 1009.0
20260506020706 10 158 0.0 0.0 0.00 0.00 0.79 90 1008.7
20260506020156 10 158 0.0 0.0 0.00 0.00 0.79 90 1008.7
20260506015646 10 158 0.0 0.0 0.00 0.00 0.79 90 1008.6
20260506014625 10 158 0.0 0.0 0.00 0.00 0.79 89 1008.8
20260506014114 10 158 0.0 0.0 0.00 0.00 0.79 89 1008.7
20260506013604 10 158 0.0 0.0 0.00 0.00 0.79 89 1008.6
20260506013055 10 158 0.0 0.0 0.00 0.00 0.79 88 1008.7
20260506012544 10 158 0.0 0.0 0.00 0.00 0.79 88 1008.6
20260506012034 10 158 0.0 0.0 0.00 0.00 0.79 87 1008.7
20260506011525 11 158 0.0 0.0 0.00 0.00 0.79 87 1008.6
20260506010504 11 158 0.0 0.0 0.00 0.00 0.79 85 1008.6
20260506005954 12 293 0.0 0.0 0.00 0.00 0.79 83 1008.5
20260506004934 12 270 0.0 0.0 0.00 0.00 0.79 82 1008.8
20260506004424 12 248 0.0 0.0 0.00 0.00 0.79 83 1008.8
20260506003913 12 293 0.0 0.0 0.00 0.00 0.79 83 1008.8
20260506003403 11 270 0.0 0.0 0.00 0.00 0.79 86 1009.0
20260506002853 11 225 0.0 0.0 0.00 0.00 0.79 88 1009.0
20260506002345 11 180 0.0 0.0 0.00 0.00 0.79 88 1008.9
20260506001833 11 113 0.0 0.0 0.00 0.00 0.79 88 1008.8
20260506000145 14 315 0.0 0.0 0.00 0.00 0.00 91 1008.9
20260505235959 11 315 0.0 0.0 0.00 0.84 0.00 89 1008.9
20260505235448 11 315 0.0 0.0 0.00 0.84 0.00 89 1008.9
20260505234939 11 315 0.0 0.0 0.00 0.84 0.00 89 1009.0
20260505234429 11 293 0.0 0.0 0.00 0.84 0.00 89 1009.0
20260505233408 11 293 0.0 0.0 0.00 0.84 0.00 90 1009.4
20260505232858 11 225 0.0 0.0 0.00 0.84 0.00 90 1009.5
20260505232349 10 248 0.0 0.0 0.00 0.84 0.00 91 1009.4
20260505231837 10 225 0.0 0.0 0.00 0.84 0.00 91 1009.5
20260505230817 10 248 0.0 0.0 0.00 0.84 0.00 91 1009.4
20260505230308 10 248 0.0 0.0 0.00 0.84 0.00 91 1009.4
20260505225247 10 225 0.0 0.0 0.00 0.84 0.00 90 1009.4
20260505224737 10 180 0.0 0.0 0.00 0.84 0.00 89 1009.1
20260505224227 11 270 0.0 0.0 0.00 0.84 0.00 90 1009.5
20260505223718 11 293 0.0 0.0 0.00 0.84 0.00 89 1009.6
20260505223207 11 315 0.0 0.0 0.00 0.84 0.00 89 1009.4
20260505222657 10 248 0.0 0.0 0.00 0.84 0.00 88 1009.7
20260505221637 11 203 0.0 0.0 0.00 0.84 0.00 87 1009.5
20260505221126 11 203 0.0 0.0 0.00 0.84 0.00 86 1009.7
20260505220617 11 270 0.0 0.0 0.00 0.84 0.00 85 1009.4
20260505220106 12 270 0.0 0.0 0.00 0.84 0.00 85 1009.7
20260505215557 12 270 0.0 0.0 0.00 0.84 0.84 86 1009.9
20260505215046 12 315 0.0 0.0 0.00 0.84 0.84 87 1009.8
20260505214536 12 315 0.0 0.0 0.00 0.84 0.84 87 1009.9
20260505214026 12 270 0.0 0.0 0.00 0.84 0.84 87 1010.0
20260505213516 12 293 0.0 0.0 0.00 0.84 0.84 89 1010.0
20260505213006 11 270 0.0 0.0 0.00 0.84 0.84 90 1009.9
20260505212455 11 270 0.0 0.0 0.00 0.84 0.84 91 1010.0
20260505211945 11 270 0.0 0.0 0.00 0.84 0.84 91 1010.1
20260505211435 11 270 0.0 0.0 0.00 0.84 0.84 91 1010.0
20260505210925 11 0 0.0 0.0 0.00 0.84 0.84 91 1009.6
20260505210415 11 0 0.0 0.0 0.00 0.84 0.84 91 1009.6
20260505205905 11 0 0.0 0.0 0.00 0.84 0.84 91 1009.9
20260505205354 11 68 0.0 0.0 0.00 0.84 0.84 91 1009.9
20260505204844 11 315 0.0 0.0 0.00 0.84 0.84 91 1009.6
20260505203825 11 315 0.0 0.0 0.05 0.84 0.84 92 1009.6
20260505203315 11 315 0.0 0.0 0.05 0.84 0.84 92 1009.2
20260505202804 11 0 0.0 0.0 0.20 0.84 0.84 91 1009.1
20260505202254 11 315 0.0 0.0 0.20 0.84 0.84 91 1009.5
20260505200724 11 315 0.0 0.0 0.23 0.84 0.84 92 1009.5
20260505200214 11 315 0.0 0.0 0.23 0.84 0.84 92 1009.2
20260505195704 11 315 0.0 0.0 0.23 0.84 0.84 91 1009.4
20260505195154 11 338 0.0 0.0 0.23 0.84 0.84 91 1009.3
20260505194644 11 315 0.0 0.0 0.23 0.84 0.84 91 1009.1
20260505194133 11 0 0.0 0.0 0.20 0.81 0.81 91 1009.2
20260505193114 11 338 0.0 0.0 0.10 0.69 0.76 90 1009.2
20260505192602 11 338 0.0 0.0 0.03 0.64 0.64 89 1009.5
20260505192053 12 0 0.0 0.0 0.03 0.64 0.64 89 1009.5
20260505191542 12 315 0.0 0.0 0.00 0.61 0.61 88 1009.7
20260505191032 12 338 0.0 0.0 0.00 0.61 0.61 87 1009.7
20260505190522 12 338 0.0 0.0 0.00 0.61 0.61 87 1009.4
20260505190013 12 315 0.0 0.0 0.00 0.61 0.61 87 1009.1
20260505185503 12 293 0.0 0.0 0.00 0.61 0.61 86 1009.0
20260505184442 12 315 0.0 0.0 0.00 0.61 0.61 89 1008.7
20260505183932 15 113 0.0 0.0 0.00 0.61 0.61 91 1008.4
20260505183422 15 90 0.0 0.0 0.00 0.61 0.61 91 1008.4
20260505182912 15 113 0.0 0.0 0.00 0.61 0.61 91 1008.2
20260505182401 15 113 0.0 0.0 0.00 0.61 0.61 91 1008.2
20260505181851 15 158 0.0 0.0 0.00 0.61 0.61 91 1007.8
20260505181342 15 135 0.0 0.0 0.00 0.61 0.61 90 1008.0
20260505180832 15 113 0.0 0.0 0.00 0.61 0.61 90 1008.1
20260505180322 15 113 0.0 0.0 0.00 0.61 0.61 90 1008.0
20260505175300 15 90 0.0 0.0 0.00 0.61 0.61 89 1007.9